sat.trackr.live / text

‹ back to catalog

ONEWEB-0253

NORAD 48971 · 2021-060E

PAYLOAD ACTIVE UNKNOWN

§ Identity

Operator
Country
UK
Launch date
2021-07-01
Launch site
VOSTO
Launch vehicle
Mass (kg)
RCS (m²)

Purposes: comms

External: N2YO · Heavens-Above · Gunter

§ Orbital elements

Epoch: 2026-05-25T04:44:31.085664Z

Period
109.37 min
Inclination
87.9105°
Eccentricity
0.0001926
Mean motion
13.16592509 rev/d
Perigee alt
1,196.3 km
Apogee alt
1,199.2 km
Semi-major
7,575.9 km
B*
-1.2285e-4
RAAN
233.3400°
Arg perigee
100.6516°
Mean anomaly
259.4832°
Rev number
23,656

§ Raw data

ONEWEB-02531 48971U 21060E   26145.19758201 -.00000034  00000+0 -12285-3 0  99982 48971  87.9105 233.3400 0001926 100.6516 259.4832 13.16592509236569

JSON: /api/v1/satellites/48971 · /tle

For live sub-satellite position, see the globe view (requires WebGL).

§ Visibility from observer

Set your observer location to see the next 7 days of passes ≥ 10°. The values pass through the URL so the page stays shareable.

No JS? Fill the form by hand. The geolocation button needs JavaScript.